Home > Weather > Orlando > Past weeks

Flag for U.S.A. Weather for the Past 2 Weeks in Orlando, Florida, U.S.A.

Now
43 °F

Clear.


Feels Like: 43 °F
Forecast: 39 / 65 °F
Wind: No wind

Location: Orlando Executive Airport

Current Time: Feb 11, 2016 at 5:52:06 AM

Latest Report: Feb 11, 2016 at 4:53 AM


Visibility: 10 mi

Pressure: 30.29 "Hg

Humidity: 71%

Dew point: 34 °F

Location of OrlandoLocation

Historic Weather in Orlando — Graph

°F

Orlando Temperature Yesterday

Maximum temperature yesterday: 61 °F (at 2:53 PM)
Minimum temperature yesterday: 42 °F (at 7:53 AM)
Average temperature yesterday: 50 °F

High & Low Weather Summary for the Past Weeks

 TemperatureHumidityPressure
High83 °F (Feb 2, 12:53 PM)97% (Jan 27, 9:53 PM)30.32 "Hg (Jan 27, 9:53 PM)
Low40 °F (Feb 11, 2:53 AM)22% (Feb 10, 4:53 PM)29.74 "Hg (Jan 28, 3:59 PM)
Average62 °F68%30.07 "Hg
* Reported Jan 27 3:53 AM — Feb 11 3:53 AM, Orlando, Weather by CustomWeather, © 2016

Note: Actual official high and low records may vary slightly from our data, if they occured in-between our weather recording intervals... More about our weather records

Advertising

Orlando Weather History for the Previous 24 Hours

 ConditionsComfort  
Time TempWeatherWind HumidityBarometerVisibility
3:53 AM
Thu, Feb 11
42 °FClear.No wind73%30.27 "Hg10 mi
2:53 AM40 °FClear.5 mph73%30.25 "Hg10 mi
1:53 AM43 °FClear.No wind65%30.26 "Hg10 mi
12:53 AM43 °FClear.5 mph60%30.27 "Hg10 mi
11:53 PM
Wed, Feb 10
44 °FClear.7 mph58%30.27 "Hg10 mi
10:53 PM45 °FClear.7 mph58%30.29 "Hg10 mi
9:53 PM46 °FClear.8 mph56%30.28 "Hg10 mi
8:53 PM47 °FClear.10 mph52%30.28 "Hg10 mi
7:53 PM49 °FClear.13 mph43%30.26 "Hg10 mi
6:53 PM50 °FClear.17 mph35%30.23 "Hg10 mi
5:53 PM53 °FSunny.16 mph27%30.22 "Hg10 mi
4:53 PM56 °FSunny.22 mph22%30.19 "Hg10 mi
3:53 PM59 °FSunny.16 mph24%30.16 "Hg10 mi
2:53 PM61 °FSunny.26 mph25%30.16 "Hg10 mi
1:53 PM60 °FSunny.25 mph31%30.16 "Hg10 mi
12:53 PM58 °FSunny.13 mph30%30.20 "Hg10 mi
11:53 AM57 °FSunny.20 mph28%30.23 "Hg10 mi
10:53 AM53 °FSunny.15 mph30%30.25 "Hg10 mi
9:53 AM51 °FSunny.14 mph31%30.25 "Hg10 mi
8:53 AM48 °FSunny.6 mph36%30.23 "Hg10 mi
7:53 AM42 °FSunny.No wind51%30.21 "Hg10 mi
6:53 AM43 °FClear.5 mph49%30.18 "Hg10 mi
5:53 AM45 °FClear.5 mph42%30.16 "Hg10 mi
Weather by CustomWeather, © 2016

See weather overviewHow to use our weather pages